[[{"header":{"parameterUnit":"m.s-1","parameterCategory":1,"la1":30.2991,"la2":30.254,"lo1":-89.0895,"lo2":-89.0444,"dy":0.0017,"dx":0.0017,"nx":28,"ny":28,"refTime":"2024-10-12T03:00:00:Z","depth":0,"parameterNumber":2,"parameterNumberName":"U-component_of_WINDS"},"data":[0,0,0,0,0,0,0,0,0,0,0,0,0,0,0,0,0,0,0,0,0,0,0,0,0,0,0,0,0,0,0,0,0,0,0,0,0,0,0,0,0,0,0,0,0,0,0,0,0,0,0,0,0,0,0,0,0,0,1.5866,1.5866,0,1.583,1.583,1.5829,1.5808,1.5808,1.5808,1.5808,1.5767,1.5766,1.5765,0,0,0,0,0,0,0,0,0,0,0,0,0,1.5912,1.5911,1.5866,1.5866,1.5865,1.583,1.583,1.5829,1.5808,1.5808,1.5808,1.5808,1.5767,1.5766,1.5765,0,0,0,0,0,0,0,0,0,0,0,0,0,1.5886,1.5911,1.5866,1.5851,1.5849,1.583,1.583,1.5829,1.5808,1.5808,1.5808,1.5808,1.5768,1.5766,1.5765,1.5758,0,0,1.576,1.576,0,0,0,0,0,0,0,0,1.5887,1.5884,1.5853,1.5852,1.585,1.5824,1.5831,1.5805,1.5808,1.5823,1.5808,1.5808,1.5786,1.5783,1.5776,1.5756,1.5754,1.576,1.5759,1.5759,1.5758,0,0,0,0,0,0,0,1.5889,1.5886,1.5852,1.5853,1.5851,1.5844,1.584,1.5826,1.5806,1.5822,1.5821,1.5817,1.5785,1.5778,1.5775,1.5754,1.576,1.5759,1.5758,1.5757,1.5726,1.5726,0,0,0,0,0,0,1.5894,1.5887,1.5853,1.5851,1.5869,1.5843,1.5839,1.5832,1.5806,1.5802,1.5817,1.5816,1.578,1.5777,1.5774,1.5764,1.5759,1.5757,1.5756,1.5726,1.5726,1.5726,0,0,0,0,0,0,1.5895,1.5891,1.5854,1.5869,1.5863,1.5843,1.5835,1.5831,1.5824,1.5802,1.5798,1.5814,1.578,1.5776,1.5762,1.5762,1.5757,1.5755,1.5725,1.5726,1.5726,1.5744,0,0,0,0,0,0,1.5897,1.5892,1.589,1.5869,1.5863,1.5845,1.5835,1.5831,1.5822,1.5821,1.5798,1.5794,1.578,1.5765,1.5761,1.576,1.5754,1.5725,1.5725,1.5726,1.5743,1.5744,1.5746,0,0,0,0,0,1.5898,1.5896,1.589,1.5886,1.586,1.5845,1.5841,1.5826,1.5822,1.582,1.5805,1.5795,1.5763,1.5763,1.5759,1.5757,1.5725,1.5725,1.5726,1.5743,1.5744,1.5746,0,0,0,0,0,0,1.5916,1.5893,1.5886,1.5877,1.5863,1.5842,1.5838,1.5829,1.5815,1.5814,1.5794,1.5789,1.5778,1.5766,1.5767,1.5749,1.5743,1.5742,1.5757,1.5758,1.576,1.5763,1.5753,0,0,0,0,0,1.5919,1.591,1.589,1.5883,1.5877,1.5859,1.5852,1.5841,1.5826,1.5819,1.5804,1.5788,1.5774,1.5766,1.5752,1.5741,1.5735,1.5738,1.5739,1.574,1.574,1.5732,1.5733,1.5726,1.5726,1.5726,0,0,1.5925,1.5911,1.5906,1.5887,1.5875,1.5865,1.5854,1.5844,1.5836,1.5817,1.5804,1.5792,1.5773,1.5761,1.5755,1.5751,1.574,1.574,1.5742,1.574,1.5733,1.5733,1.5734,1.5726,1.5726,1.5726,0,0,1.5931,1.592,1.5913,1.5902,1.5885,1.5872,1.5871,1.5851,1.5842,1.5829,1.5815,1.5804,1.5781,1.5768,1.5759,1.5759,1.5748,1.5755,1.5761,1.5754,1.5755,1.5755,1.5755,1.5755,1.5754,1.5754,1.5754,0,1.594,1.5925,1.5911,1.5901,1.5893,1.5877,1.587,1.5859,1.5837,1.5831,1.5827,1.5798,1.5784,1.5769,1.5769,1.5762,1.5758,1.5757,1.5756,1.5757,1.5757,1.5756,1.5756,1.5755,1.5755,1.5755,1.5755,0,1.5937,1.5927,1.5924,1.5905,1.5896,1.5887,1.587,1.5862,1.5853,1.584,1.5826,1.5809,1.5791,1.5787,1.5777,1.5769,1.5768,1.576,1.5754,1.5759,1.5758,1.5757,1.5757,1.5756,1.5756,1.5756,0,0,1.5953,1.5927,1.5925,1.5917,1.5896,1.5888,1.5878,1.5862,1.5855,1.5841,1.5831,1.5812,1.5806,1.5795,1.5783,1.5777,1.5778,1.577,1.5769,1.5772,1.5768,1.5773,1.5773,1.5771,1.577,1.577,1.5769,0,1.5955,1.5939,1.5925,1.5913,1.5903,1.5888,1.588,1.5865,1.5854,1.5842,1.5828,1.5815,1.5808,1.5801,1.5794,1.5779,1.5776,1.5779,1.576,1.576,1.5766,1.5773,1.5778,1.5778,1.5769,1.5768,1.5768,0,1.5956,1.5944,1.5931,1.5912,1.5907,1.59,1.5884,1.5874,1.5857,1.5848,1.5836,1.5824,1.5812,1.5806,1.5788,1.579,1.5782,1.5773,1.5772,1.577,1.5764,1.577,1.5778,1.5777,1.5768,1.5768,1.5768,0,1.5969,1.5949,1.5938,1.5931,1.5908,1.5904,1.5894,1.5877,1.5868,1.5853,1.5847,1.5831,1.5822,1.5808,1.5791,1.5789,1.5775,1.5768,1.5766,1.5767,1.5764,1.5764,1.577,1.5759,1.5759,1.5759,1.5759,0,1.5973,1.5965,1.5944,1.5938,1.5929,1.5912,1.5903,1.5892,1.5877,1.5867,1.5852,1.5843,1.5821,1.5809,1.5795,1.5782,1.5778,1.577,1.5766,1.5771,1.5772,1.5765,1.5765,1.5759,1.5759,1.5759,1.5759,0,1.5985,1.597,1.5958,1.5938,1.5933,1.5927,1.5909,1.5901,1.5889,1.5876,1.5872,1.5852,1.5837,1.5819,1.5797,1.5788,1.5775,1.577,1.5782,1.5779,1.5779,1.5779,1.578,1.5779,1.5769,1.5769,1.5769,0,1.5989,1.5983,1.5962,1.5955,1.5946,1.5935,1.5926,1.5909,1.59,1.5881,1.5875,1.5859,1.5845,1.5821,1.5803,1.5787,1.5781,1.5782,1.5778,1.5783,1.578,1.5781,1.5779,1.5783,1.5783,1.5784,1.5784,0,1.5996,1.5989,1.5978,1.5964,1.5954,1.5942,1.5929,1.5923,1.5903,1.5894,1.5879,1.5868,1.5847,1.583,1.5811,1.5799,1.5788,1.5785,1.5784,1.5789,1.5795,1.5791,1.5784,1.5785,1.5785,1.5785,1.5785,1.5785,1.6004,1.5998,1.5983,1.597,1.5959,1.5947,1.5939,1.5926,1.5913,1.5896,1.5886,1.5871,1.5853,1.5826,1.5815,1.5802,1.5798,1.5796,1.5795,1.5795,1.5796,1.5798,1.5798,1.5798,1.5798,1.5798,1.5798,0,1.601,1.6,1.5989,1.5972,1.5961,1.5953,1.5938,1.593,1.5917,1.5902,1.5889,1.5871,1.5855,1.5837,1.5819,1.5812,1.5806,1.5808,1.5808,1.5805,1.5801,1.5804,1.5813,1.5813,1.5813,1.5813,1.5813,1.5813,1.6013,1.6002,1.5994,1.5977,1.5966,1.5952,1.5944,1.5932,1.5921,1.5902,1.5889,1.5877,1.586,1.5841,1.5826,1.582,1.5814,1.5818,1.5811,1.5807,1.5806,1.5804,1.5807,1.5817,1.5817,1.5816,1.5816,1.5816]},{"header":{"parameterUnit":"m.s-1","parameterCategory":1,"la1":30.2991,"la2":30.254,"lo1":-89.0895,"lo2":-89.0444,"dy":0.0017,"dx":0.0017,"nx":28,"ny":28,"refTime":"2024-10-12T03:00:00:Z","depth":0,"parameterNumber":3,"parameterNumberName":"V-component_of_WINDS"},"data":[0,0,0,0,0,0,0,0,0,0,0,0,0,0,0,0,0,0,0,0,0,0,0,0,0,0,0,0,0,0,0,0,0,0,0,0,0,0,0,0,0,0,0,0,0,0,0,0,0,0,0,0,0,0,0,0,0,0,-0.1173,-0.1174,0,-0.1225,-0.1226,-0.1226,-0.1233,-0.1232,-0.1232,-0.1231,-0.1285,-0.1287,-0.1289,0,0,0,0,0,0,0,0,0,0,0,0,0,-0.1081,-0.1083,-0.1173,-0.1174,-0.1175,-0.1225,-0.1226,-0.1226,-0.1233,-0.1232,-0.1232,-0.1231,-0.1285,-0.1287,-0.1289,0,0,0,0,0,0,0,0,0,0,0,0,0,-0.1126,-0.1084,-0.1173,-0.1184,-0.1185,-0.1225,-0.1226,-0.1227,-0.1233,-0.1232,-0.1232,-0.1231,-0.1284,-0.1287,-0.129,-0.1322,0,0,-0.1298,-0.13,0,0,0,0,0,0,0,0,-0.1124,-0.1129,-0.1182,-0.1183,-0.1185,-0.1222,-0.1213,-0.1259,-0.1233,-0.1215,-0.1231,-0.1231,-0.1265,-0.1269,-0.1281,-0.1325,-0.1327,-0.1299,-0.13,-0.1302,-0.1302,0,0,0,0,0,0,0,-0.112,-0.1127,-0.1194,-0.1183,-0.1185,-0.1187,-0.1192,-0.1222,-0.1244,-0.1217,-0.1217,-0.1223,-0.1266,-0.1278,-0.1282,-0.1328,-0.1298,-0.1301,-0.1303,-0.1304,-0.1402,-0.1403,0,0,0,0,0,0,-0.1115,-0.1125,-0.1192,-0.1195,-0.1152,-0.1189,-0.1195,-0.1211,-0.1243,-0.1247,-0.1224,-0.1223,-0.1273,-0.1279,-0.1284,-0.1325,-0.1301,-0.1304,-0.1306,-0.1401,-0.1402,-0.1403,0,0,0,0,0,0,-0.1113,-0.1121,-0.119,-0.116,-0.1169,-0.1191,-0.1209,-0.1212,-0.1224,-0.1249,-0.1253,-0.1232,-0.1273,-0.128,-0.1313,-0.1327,-0.1305,-0.1308,-0.14,-0.1401,-0.1403,-0.1406,0,0,0,0,0,0,-0.1111,-0.112,-0.1133,-0.116,-0.1171,-0.1218,-0.121,-0.1214,-0.1229,-0.1229,-0.1258,-0.1262,-0.1273,-0.1308,-0.1316,-0.133,-0.131,-0.1399,-0.1401,-0.1402,-0.1405,-0.1407,-0.141,0,0,0,0,0,-0.1107,-0.1132,-0.1133,-0.1141,-0.1187,-0.1219,-0.1224,-0.1237,-0.123,-0.1243,-0.1259,-0.1261,-0.1324,-0.1312,-0.132,-0.1335,-0.1398,-0.14,-0.1402,-0.1404,-0.1407,-0.141,0,0,0,0,0,0,-0.1105,-0.1136,-0.1138,-0.1172,-0.1193,-0.122,-0.1236,-0.1239,-0.1263,-0.1262,-0.1276,-0.1282,-0.1315,-0.1328,-0.1314,-0.1369,-0.136,-0.1364,-0.1359,-0.1362,-0.1364,-0.1361,-0.1313,0,0,0,0,0,-0.1109,-0.1132,-0.1157,-0.1185,-0.1195,-0.1214,-0.1228,-0.1236,-0.1258,-0.1267,-0.1285,-0.1307,-0.1331,-0.1348,-0.1372,-0.1407,-0.1413,-0.1422,-0.1424,-0.1426,-0.1429,-0.1449,-0.1453,-0.141,-0.141,-0.141,0,0,-0.1117,-0.1136,-0.115,-0.1185,-0.1202,-0.1226,-0.1221,-0.1247,-0.1265,-0.1271,-0.1303,-0.1317,-0.1342,-0.1377,-0.1393,-0.1389,-0.1442,-0.1428,-0.143,-0.1432,-0.1452,-0.1456,-0.1459,-0.1411,-0.1411,-0.1411,0,0,-0.1143,-0.116,-0.1185,-0.1202,-0.1227,-0.124,-0.1246,-0.1272,-0.1282,-0.1314,-0.1319,-0.1341,-0.1383,-0.1401,-0.1416,-0.1449,-0.1452,-0.1457,-0.1469,-0.1489,-0.1492,-0.1495,-0.1508,-0.1512,-0.146,-0.146,-0.146,0,-0.1149,-0.1185,-0.1197,-0.1223,-0.1239,-0.1245,-0.1271,-0.1287,-0.1319,-0.133,-0.1325,-0.1379,-0.1396,-0.1435,-0.1443,-0.1454,-0.1462,-0.1454,-0.1491,-0.1494,-0.1497,-0.1509,-0.1514,-0.146,-0.146,-0.146,-0.146,0,-0.1192,-0.1217,-0.1234,-0.1265,-0.1283,-0.1308,-0.1325,-0.1341,-0.1347,-0.136,-0.1393,-0.1414,-0.1443,-0.1453,-0.1459,-0.1493,-0.149,-0.1488,-0.1479,-0.1502,-0.1513,-0.1518,-0.1461,-0.1461,-0.1461,-0.1461,0,0,-0.1219,-0.1256,-0.1262,-0.1277,-0.1305,-0.1325,-0.1351,-0.1379,-0.1393,-0.1415,-0.1438,-0.1473,-0.1472,-0.1489,-0.1497,-0.1514,-0.154,-0.151,-0.1511,-0.1515,-0.1579,-0.158,-0.1586,-0.1542,-0.1542,-0.1543,-0.1577,0,-0.1249,-0.1295,-0.1307,-0.1347,-0.137,-0.1376,-0.1399,-0.142,-0.1432,-0.1454,-0.1469,-0.1494,-0.149,-0.15,-0.1517,-0.1533,-0.1553,-0.153,-0.1563,-0.1564,-0.1557,-0.1592,-0.1593,-0.1624,-0.1581,-0.1582,-0.1583,0,-0.129,-0.1313,-0.1355,-0.1381,-0.1391,-0.1412,-0.1438,-0.1459,-0.1483,-0.1491,-0.1509,-0.1516,-0.1544,-0.1534,-0.1573,-0.1557,-0.1572,-0.1581,-0.1583,-0.1587,-0.1575,-0.1597,-0.1634,-0.1639,-0.159,-0.1589,-0.1589,0,-0.1306,-0.1347,-0.1378,-0.139,-0.1421,-0.1435,-0.1449,-0.1471,-0.1488,-0.1511,-0.1522,-0.1548,-0.1563,-0.1583,-0.1597,-0.1588,-0.1635,-0.1626,-0.1643,-0.1643,-0.1653,-0.1652,-0.1694,-0.1661,-0.1661,-0.1661,-0.1661,0,-0.1339,-0.1364,-0.1386,-0.1404,-0.1433,-0.1447,-0.1475,-0.1489,-0.1509,-0.1531,-0.1538,-0.1559,-0.1576,-0.1599,-0.161,-0.1641,-0.1647,-0.1655,-0.1658,-0.1655,-0.1654,-0.1664,-0.1663,-0.1662,-0.1662,-0.1662,-0.1661,0,-0.1362,-0.1377,-0.1411,-0.1437,-0.1445,-0.1465,-0.1488,-0.1507,-0.152,-0.1547,-0.1555,-0.1575,-0.1603,-0.1618,-0.1653,-0.166,-0.1695,-0.1696,-0.1687,-0.1688,-0.1705,-0.1703,-0.1755,-0.1763,-0.1725,-0.1725,-0.1725,0,-0.1382,-0.1402,-0.143,-0.1445,-0.1459,-0.1484,-0.15,-0.1514,-0.1531,-0.1559,-0.1575,-0.1603,-0.1626,-0.1669,-0.1688,-0.1714,-0.1717,-0.1733,-0.1721,-0.1717,-0.1718,-0.1717,-0.1719,-0.1735,-0.1736,-0.1736,-0.1736,0,-0.1416,-0.1423,-0.1446,-0.1472,-0.1491,-0.1513,-0.1534,-0.1546,-0.1563,-0.1582,-0.161,-0.1628,-0.1663,-0.1691,-0.1719,-0.1734,-0.1738,-0.174,-0.1745,-0.1743,-0.1737,-0.1741,-0.1693,-0.1739,-0.1738,-0.1738,-0.1738,-0.1738,-0.1439,-0.1457,-0.148,-0.1506,-0.1523,-0.1543,-0.1562,-0.1577,-0.1601,-0.163,-0.1637,-0.1667,-0.169,-0.1728,-0.1744,-0.1767,-0.1765,-0.1772,-0.1775,-0.1776,-0.1777,-0.1732,-0.1773,-0.1773,-0.1773,-0.1772,-0.1772,0,-0.1474,-0.1489,-0.1513,-0.1542,-0.1562,-0.1564,-0.1588,-0.1605,-0.1631,-0.1652,-0.1674,-0.1707,-0.1734,-0.1754,-0.1782,-0.1797,-0.18,-0.1804,-0.1804,-0.1807,-0.1778,-0.1771,-0.1802,-0.1802,-0.1802,-0.1802,-0.1802,-0.1802,-0.1494,-0.1525,-0.1535,-0.1574,-0.159,-0.1618,-0.1632,-0.165,-0.1667,-0.1703,-0.1726,-0.1739,-0.176,-0.1789,-0.1814,-0.1819,-0.183,-0.1834,-0.1839,-0.1812,-0.1809,-0.1806,-0.1799,-0.1836,-0.1836,-0.1867,-0.1867,-0.1867]}]]